Seattle, WA
on Thursday, January 24, 2013

Thursday
Previous Day Next Day
Daily Summary
 ActualAverageRecord
Temperature
Mean Temperature °F 43°F  
Max Temperature 45°F 48°F 58°F (1995)
Min Temperature 34°F 37°F 10°F (1950)
Degree Days
Heating Degree Days 25 22  
Month to date heating degree days 674 556  
Since 1 July heating degree days 2425 2494  
Cooling Degree Days 0 0  
Month to date cooling degree days 0 0  
Year to date cooling degree days 0 0  
Moisture
Dew Point 37°F   
Average Humidity 79    
Maximum Humidity 93    
Minimum Humidity 65    
Precipitation
Precipitation 0.23 in 0.16 in 1.36 in (1984)
Month to date precipitation 3.14 4.45  
Year to date precipitation 3.14 4.45  
Snow
Snow 0.00 in in 3.50 in (1972)
Month to date snowfall T  
Since 1 July snowfall 0.6  
Snow Depth 0.00 in   
Wind
Wind Speed 6 mph   
Max Wind Speed 15 mph   
Max Gust Speed 18 mph   
Visibility 9 miles   
Events Rain   

Key: T is trace of precipitation, MM is missing value
Source: NWS Daily Summary
Time(PST)TemperatureDew PointHumidity Pressure Visibility Wind DirectionWind SpeedGust SpeedPrecipitationEvents Conditions
12:00 AM 41.0°F 37.4°F 87% 30.13 in 10.0 miles SSW 13.8 mph - N/A   Mostly Cloudy
12:31 AM 41.0°F 37.4°F 87% 30.14 in 10.0 miles SSW 13.8 mph - N/A   Mostly Cloudy
12:53 AM 41.0°F 37.9°F 89% 30.18 in 10.0 miles SSW 10.4 mph - N/A   Mostly Cloudy
1:53 AM 41.0°F 37.0°F 86% 30.20 in 10.0 miles SSW 11.5 mph - N/A   Mostly Cloudy
2:32 AM 41.0°F 37.4°F 87% 30.18 in 10.0 miles SSW 11.5 mph - N/A   Mostly Cloudy
2:53 AM 39.9°F 37.0°F 89% 30.22 in 10.0 miles SSW 11.5 mph - N/A   Mostly Cloudy
3:53 AM 39.0°F 36.0°F 89% 30.22 in 10.0 miles South 9.2 mph - N/A   Scattered Clouds
4:08 AM 39.2°F 35.6°F 87% 30.19 in 10.0 miles South 6.9 mph - N/A   Mostly Cloudy
4:53 AM 39.0°F 35.1°F 86% 30.22 in 10.0 miles South 8.1 mph - N/A   Mostly Cloudy
5:53 AM 37.0°F 35.1°F 93% 30.23 in 10.0 miles SW 4.6 mph - N/A   Mostly Cloudy
6:53 AM 37.0°F 34.0°F 89% 30.22 in 10.0 miles SE 4.6 mph - N/A   Scattered Clouds
7:53 AM 35.1°F 33.1°F 92% 30.22 in 10.0 miles SE 6.9 mph - N/A   Scattered Clouds
8:53 AM 37.0°F 33.1°F 86% 30.21 in 10.0 miles SE 6.9 mph - N/A   Scattered Clouds
9:53 AM 39.9°F 34.0°F 79% 30.21 in 10.0 miles SSE 3.5 mph - N/A   Mostly Cloudy
10:53 AM 43.0°F 34.0°F 71% 30.19 in 10.0 miles SSE 3.5 mph - N/A   Overcast
11:53 AM 44.1°F 34.0°F 68% 30.17 in 10.0 miles Calm Calm - N/A   Overcast
12:53 PM 44.1°F 35.1°F 71% 30.14 in 10.0 miles South 3.5 mph - N/A   Overcast
1:53 PM 44.1°F 35.1°F 71% 30.13 in 10.0 miles SSE 4.6 mph - N/A   Overcast
2:53 PM 44.1°F 35.1°F 71% 30.11 in 10.0 miles South 3.5 mph - N/A   Overcast
3:53 PM 43.0°F 37.0°F 80% 30.11 in 10.0 miles West 6.9 mph - N/A   Overcast
4:53 PM 42.1°F 37.9°F 85% 30.12 in 8.0 miles Calm Calm - 0.03 in Rain Light Rain
5:53 PM 41.0°F 37.9°F 89% 30.12 in 10.0 miles Calm Calm - 0.06 in Rain Light Rain
6:53 PM 41.0°F 39.0°F 93% 30.12 in 5.0 miles ESE 8.1 mph - 0.06 in Rain Light Rain
7:53 PM 41.0°F 39.0°F 93% 30.11 in 5.0 miles ESE 8.1 mph - 0.03 in Rain Light Rain
8:53 PM 41.0°F 39.0°F 93% 30.10 in 10.0 miles SE 6.9 mph - 0.01 in Rain Light Rain
9:53 PM 41.0°F 39.0°F 93% 30.09 in 10.0 miles SE 6.9 mph - 0.00 in   Overcast
10:53 PM 41.0°F 39.0°F 93% 30.08 in 7.0 miles SSE 8.1 mph - 0.01 in Rain Light Rain
11:42 PM 41.0°F 39.2°F 93% 30.05 in 2.5 miles SE 6.9 mph - 0.02 in Rain Light Rain
11:53 PM 42.1°F 39.9°F 92% 30.09 in 2.5 miles SE 4.6 mph - 0.03 in Rain Light Rain
Moon Phase
Jan. 24 Jan. 26 Feb. 03 Feb. 10 Feb. 17
Sunrise:07:44 AM (PST) Moon Rise:03:04 PM (PST)1/24
Sunset:04:59 PM (PST) Moon Set:05:48 AM (PST)1/24

Copyright © 2014 The Weather Underground, Inc.